Regional Weather Roundup
Issued by NWS

Home | Current Version | Previous Version | Graphics & Text | Print | Product List | Glossary On
Versions: 1 2 3 4 5 6 7 8 9 10 11 12 13 14 15 16 17 18 19 20 21 22 23 24 25 26 27 28 29 30 31 32 33 34 35 36 37 38 39 40 41 42 43 44 45 46 47 48 49 50
000
ASUS43 KFSD 270502
RWRSD

WEATHER ROUNDUP FOR SOUTH DAKOTA
NATIONAL WEATHER SERVICE SIOUX FALLS SD
1200 AM CDT FRI MAY 27 2016

NOTE: "FAIR" INDICATES FEW OR NO CLOUDS BELOW 12,000 FEET WITH NO
SIGNIFICANT WEATHER AND/OR OBSTRUCTIONS TO VISIBILITY.


SDZ001>005-009-010-012>017-270600-
NORTHWEST AND NORTH CENTRAL SOUTH DAKOTA

CITY           SKY/WX    TMP DP  RH WIND       PRES   REMARKS
BUFFALO          N/A     56  42  59 NW5       29.82R
FAITH            N/A     49  41  74 N8        29.85S
MOBRIDGE       CLEAR     59  47  64 NW8       29.79R
$$

SDZ012>016-024>037-041>051-057-063-072>074-270600-
SOUTHWEST AND SOUTH CENTRAL SOUTH DAKOTA

CITY           SKY/WX    TMP DP  RH WIND       PRES   REMARKS
RAPID CTY ARPT CLEAR     53  44  71 N12       29.87S
PIERRE         PTCLDY    57  50  77 NE3       29.80R
CUSTER         CLEAR     46  40  79 NW5       29.94F
ELLSWORTH AFB  PTCLDY    57  43  59 N13       29.87S
PHILIP         CLEAR     52  50  93 NW5       29.82S
PINE RIDGE     PTCLDY    48  43  82 E7        29.85R
WINNER         TSTM      61  56  83 E10       29.84R
$$

SDZ004>011-016>023-039-040-270600-
NORTHEAST SOUTH DAKOTA

CITY           SKY/WX    TMP DP  RH WIND       PRES   REMARKS
ABERDEEN       MOCLDY    61  55  81 S9        29.82S
WATERTOWN      CLOUDY    63  54  72 CALM      29.84R
BROOKINGS      CLOUDY    63  53  70 SE7       29.82R
SISSETON         N/A     61  56  83 N14       29.82R
$$

SDZ017-020-022-023-036>040-048>070-270600-
SOUTHEAST SOUTH DAKOTA

CITY           SKY/WX    TMP DP  RH WIND       PRES   REMARKS
SIOUX FALLS    CLOUDY    64  54  69 SW3       29.81R
HURON          CLOUDY    62  54  74 NE7       29.80S
MITCHELL       CLOUDY    64  59  83 E3        29.80R
YANKTON        CLOUDY    64  55  72 SE9       29.80R
$$

ABBREVIATIONS USED IN REMARKS
   TC - TEMPERATURE IN CELSIUS
  WCI - WIND CHILL INDEX
   HX - HEAT INDEX
  VSB - VISIBILITY





USA.gov is the U.S. government's official web portal to all federal, state and local government web resources and services.